Vorticity
nan nan nan nan nan nan nan nan nan nan nan nan nan nan nan nan nan nan nan nan nan nan nan nan nan nan nan nan nan nan nan nan nan nan nan nan nan nan nan nan nan nan nan
nan 8 8 4 8 9 7 8 10 7 7 9 7 6 7 8 7 6 9 7 8 5 4 4 4 5 5 5 5 4 5 6 7 9 11 13 14 12 7 7 7 6 nan
nan 8 6 9 8 8 10 8 6 8 8 5 5 7 7 8 8 6 7 10 8 -2 3 5 3 3 4 4 5 5 5 5 5 5 6 8 10 15 16 8 6 7 nan
nan 9 8 7 7 7 7 8 8 6 5 7 8 7 8 7 7 10 9 7 4 6 8 2 3 2 4 2 3 4 4 5 5 6 6 4 6 7 11 17 13 6 nan
nan 8 10 7 6 7 6 6 5 7 7 7 7 8 6 10 9 7 9 10 10 9 3 5 1 5 5 0 3 4 6 4 4 7 7 6 6 5 5 8 16 17 nan
nan 10 8 5 7 7 6 6 7 8 8 7 7 9 9 6 11 10 10 12 8 6 6 5 5 6 2 2 4 10 7 6 10 7 5 7 7 7 6 5 7 15 nan
nan 7 6 6 8 6 7 7 7 7 8 9 11 7 10 9 6 10 9 8 7 8 8 9 8 7 3 5 9 7 9 12 10 8 6 7 6 7 8 6 6 6 nan
nan 6 7 7 7 7 7 9 9 11 8 8 8 10 8 11 5 6 8 8 8 8 7 6 7 8 9 8 6 8 12 12 7 6 8 9 8 7 8 8 7 6 nan
nan 7 6 8 8 8 7 9 10 11 9 8 8 8 8 7 9 5 7 8 10 8 9 7 7 8 8 9 6 6 15 9 7 7 8 10 10 9 8 8 9 8 nan
nan 8 9 10 9 9 8 9 9 9 10 8 9 7 9 9 9 10 10 8 8 8 9 9 9 7 8 7 7 10 8 3 4 6 8 10 12 11 9 9 9 8 nan
nan 9 10 10 11 9 9 10 10 8 12 8 8 9 10 11 9 9 8 9 8 8 9 9 8 10 9 9 8 3 2 8 2 6 8 9 13 13 12 10 9 9 nan
nan 7 9 10 11 11 12 12 12 8 6 11 9 8 8 9 9 8 9 8 9 9 7 9 9 9 9 9 7 10 3 0 4 11 10 7 15 16 12 12 11 10 nan
nan 6 8 11 11 13 13 11 7 9 8 7 8 8 8 9 9 9 8 8 9 8 9 6 8 8 9 9 7 3 6 10 13 12 6 8 15 15 12 14 13 14 nan
nan 8 9 10 13 11 11 5 5 7 10 6 6 9 9 9 8 9 9 9 9 8 6 7 9 8 10 8 8 9 10 7 13 9 7 8 13 15 11 10 14 17 nan
nan 8 10 10 12 8 5 6 10 8 8 10 8 8 8 8 9 9 10 10 8 9 7 10 8 8 9 8 7 10 8 6 10 10 12 8 11 13 11 9 9 17 nan
nan 7 9 13 9 8 4 7 5 10 12 7 7 7 8 9 9 9 9 10 9 9 9 9 7 8 8 7 7 9 8 12 16 19 8 4 7 8 11 11 10 10 nan
nan 9 9 9 9 9 8 10 11 10 7 8 7 7 7 9 10 9 10 8 9 9 10 7 7 7 7 9 10 9 11 14 20 13 2 3 1 6 9 11 11 9 nan
nan 9 10 9 8 9 11 12 9 10 10 9 8 8 10 8 8 11 9 8 10 10 9 8 12 10 10 10 10 11 11 9 9 8 11 3 4 5 6 9 12 12 nan
nan 10 9 10 10 12 11 10 10 8 8 8 9 9 10 8 12 13 9 10 11 11 10 12 10 9 10 10 11 13 12 12 9 23 18 -0 9 7 4 7 15 16 nan
nan 10 9 8 11 9 13 13 11 9 10 9 8 7 10 14 12 12 13 10 10 11 11 10 9 9 10 10 11 12 12 12 9 13 10 17 17 8 10 7 8 11 nan
nan 9 10 9 10 9 16 13 12 11 9 9 10 10 10 13 14 8 6 7 8 10 9 9 10 10 7 9 10 10 9 10 12 13 14 19 15 12 11 9 3 7 nan
nan 10 10 11 11 15 14 7 10 10 9 9 10 11 13 11 8 11 13 6 5 5 5 9 8 7 8 10 11 9 9 9 11 11 9 10 14 12 11 18 10 4 nan
nan 10 9 12 13 20 9 4 5 7 9 10 11 10 11 13 11 9 14 12 13 19 14 6 6 8 9 8 9 9 9 10 10 8 6 10 10 10 12 9 8 6 nan
nan 10 10 12 13 18 9 3 5 8 9 10 11 10 10 8 14 10 9 12 11 13 16 14 9 8 7 6 7 11 12 10 11 11 10 8 7 9 11 7 5 7 nan
nan 10 10 11 20 14 7 3 4 10 10 11 10 10 13 10 3 8 11 10 11 11 9 7 11 11 12 13 10 10 12 12 11 9 10 15 13 9 7 8 11 10 nan
nan nan nan nan nan nan nan nan nan nan nan nan nan nan nan nan nan nan nan nan nan nan nan nan nan nan nan nan nan nan nan nan nan nan nan nan nan nan nan nan nan nan nan
CAPE
301 181 212 137 308 68 57 63 57 0 0 0 0 0 0 0 0 0 0 0 0 0 0 0 0 0 0 0 0 0 8 21 27 55 341 451 370 380 412 319 324 270 243
268 139 95 90 48 47 28 1 0 0 0 0 0 0 0 0 0 0 0 0 0 1 0 0 0 0 0 0 0 0 0 0 0 0 0 122 309 314 314 240 245 222 204
445 265 8 46 60 0 0 0 0 0 0 0 0 0 0 0 0 0 8 24 13 5 4 1 0 0 0 0 0 0 0 0 0 0 0 0 22 172 269 263 246 220 218
0 0 0 0 0 0 0 0 0 0 0 0 0 0 0 0 0 13 10 26 37 34 11 0 0 0 0 0 0 0 0 0 0 0 0 0 0 0 59 174 265 240 194
0 0 0 0 0 0 0 0 0 0 0 0 0 3 5 0 9 0 0 24 45 38 33 15 43 36 0 0 0 0 0 0 0 0 0 0 0 0 0 0 105 260 227
0 0 0 0 0 0 0 1 0 0 1 12 4 5 5 0 0 1 9 23 23 17 19 24 26 21 77 17 0 0 2 7 5 5 1 0 0 0 0 0 0 30 247
0 0 0 0 0 0 1 9 18 24 8 1 0 3 0 0 8 0 4 17 5 4 12 19 14 9 5 36 1 3 0 4 20 13 4 0 0 0 0 0 0 0 96
0 0 0 0 1 0 2 10 25 19 1 0 0 5 0 0 0 0 0 0 13 2 12 2 5 3 8 6 4 0 1 9 4 10 6 3 0 0 0 0 0 0 25
0 0 0 0 0 2 0 10 7 16 5 0 0 0 1 1 2 0 3 2 30 9 13 4 2 1 6 1 1 4 20 0 0 0 5 8 6 0 0 0 0 0 0
0 0 0 0 0 0 1 3 6 12 11 7 9 5 10 13 9 5 1 4 15 14 69 21 6 1 0 4 12 21 20 8 0 0 5 6 9 8 3 0 0 1 1
0 0 0 0 0 0 2 11 29 27 21 31 24 12 2 2 2 12 16 13 16 23 20 58 17 15 10 9 9 9 25 61 0 0 15 5 4 8 13 7 3 5 7
0 0 0 0 0 0 10 30 34 30 33 19 11 12 14 18 16 25 33 26 55 18 12 34 73 56 53 42 17 56 67 8 0 0 19 5 13 37 27 19 16 31 34
0 0 0 0 0 2 19 11 21 24 31 45 21 16 28 36 44 43 39 40 43 14 16 36 55 56 17 48 30 57 10 1 5 32 20 0 20 65 12 26 39 33 52
0 0 0 0 8 16 10 20 57 77 66 50 32 47 52 48 46 45 47 60 56 34 27 21 38 41 45 54 49 62 23 40 23 50 20 0 10 59 51 26 26 15 50
0 0 0 7 25 32 36 63 60 77 68 54 54 53 53 49 41 31 39 46 74 73 24 19 36 25 49 55 59 52 63 55 68 28 7 0 11 36 27 10 1 25 97
0 0 0 0 20 54 59 52 56 63 39 53 38 57 69 59 55 41 33 46 73 80 73 27 21 52 44 21 34 54 45 74 39 43 0 0 0 0 0 2 2 45 46
0 0 0 0 8 25 44 58 63 76 50 65 73 60 58 58 53 55 71 70 58 75 84 42 28 28 32 35 24 46 47 61 60 42 0 0 0 0 0 0 0 0 0
0 0 0 8 22 31 28 30 50 45 66 59 68 54 48 40 52 43 65 40 48 43 67 29 21 44 35 30 45 48 41 20 58 13 33 1 10 0 0 0 0 0 0
0 0 9 23 30 38 40 54 41 55 45 64 48 53 45 46 25 27 29 23 16 10 25 38 37 37 36 36 35 29 25 39 28 63 5 0 24 0 0 0 19 6 0
0 5 15 20 21 23 19 27 28 36 47 44 38 15 10 4 2 0 0 1 4 8 11 22 23 20 29 25 50 56 65 64 55 28 3 16 2 0 0 2 0 0 1
2 7 21 32 28 36 12 2 14 33 30 21 16 9 1 0 0 0 0 1 7 7 8 8 19 28 28 41 36 44 53 57 59 63 50 41 30 45 62 30 8 0 0
3 12 26 31 47 33 0 0 0 0 0 9 14 1 0 2 0 0 0 2 0 6 14 22 28 26 30 33 61 70 67 44 16 49 6 17 72 67 52 28 0 0 2
12 23 24 27 57 40 0 0 0 0 0 7 2 0 0 0 1 1 0 6 9 24 21 17 25 32 46 37 30 51 51 53 47 41 25 9 28 33 52 18 0 0 0
24 24 24 33 39 0 0 0 0 0 1 2 0 0 0 0 0 0 0 1 2 4 6 1 14 22 16 18 30 24 16 17 30 34 34 26 63 43 45 56 0 0 0
27 31 28 16 16 0 0 0 0 0 1 1 1 1 0 0 0 0 0 2 1 2 4 13 11 17 23 14 11 49 48 43 69 28 34 65 42 66 82 68 69 0 0
21 30 19 5 0 0 0 0 0 0 0 4 2 2 0 0 0 0 2 2 6 5 0 0 5 8 18 22 37 20 37 36 42 64 31 48 77 53 49 75 60 55 17